Time,TemperatureF,DewpointF,PressureIn,WindDirection,WindDirectionDegrees,WindSpeedMPH,WindSpeedGustMPH,Humidity,HourlyPrecipIn,Conditions,Clouds,dailyrainin,SoftwareType,DateUTC
2013-03-05 01:21:00,48.0,35.0,30.21,West,280,3.0,4.0,60,0.00,,,-99.99,,2013-03-05 09:21:00,
2013-03-05 01:31:00,48.0,35.0,30.21,West,280,3.0,4.0,60,0.00,,,-99.99,,2013-03-05 09:31:00,
2013-03-05 01:42:00,48.0,35.0,30.21,West,280,3.0,4.0,60,0.00,,,-99.99,,2013-03-05 09:42:00,
2013-03-05 02:21:00,46.0,35.0,30.21,North,-999,0.0,0.0,66,0.00,,,-99.99,,2013-03-05 10:21:00,
2013-03-05 02:32:00,46.0,35.0,30.21,North,-999,0.0,0.0,66,0.00,,,-99.99,,2013-03-05 10:32:00,
2013-03-05 02:42:00,46.0,35.0,30.21,North,-999,0.0,0.0,66,0.00,,,-99.99,,2013-03-05 10:42:00,
2013-03-05 03:22:00,46.0,36.0,30.20,North,0,0.0,3.0,69,0.00,,,-99.99,,2013-03-05 11:22:00,
2013-03-05 03:32:00,46.0,36.0,30.20,North,0,0.0,3.0,69,0.00,,,-99.99,,2013-03-05 11:32:00,
2013-03-05 03:42:00,46.0,36.0,30.20,North,0,0.0,3.0,69,0.00,,,-99.99,,2013-03-05 11:42:00,
2013-03-05 04:22:00,44.0,36.0,30.19,North,0,0.0,3.0,73,0.00,,,-99.99,,2013-03-05 12:22:00,
2013-03-05 04:32:00,44.0,36.0,30.19,North,0,0.0,3.0,73,0.00,,,-99.99,,2013-03-05 12:32:00,
2013-03-05 04:42:00,44.0,36.0,30.19,North,0,0.0,3.0,73,0.00,,,-99.99,,2013-03-05 12:42:00,
2013-03-05 05:21:00,41.0,35.0,30.19,West,280,1.0,1.0,78,0.00,,,-99.99,,2013-03-05 13:21:00,
2013-03-05 05:32:00,41.0,35.0,30.19,West,280,1.0,1.0,78,0.00,,,-99.99,,2013-03-05 13:32:00,
2013-03-05 05:42:00,41.0,35.0,30.19,West,280,1.0,1.0,78,0.00,,,-99.99,,2013-03-05 13:42:00,
2013-03-05 06:21:00,49.0,38.0,30.19,West,280,4.0,9.0,65,0.00,,,-99.99,,2013-03-05 14:21:00,
2013-03-05 06:31:00,49.0,38.0,30.19,West,280,4.0,9.0,65,0.00,,,-99.99,,2013-03-05 14:31:00,
2013-03-05 06:42:00,49.0,38.0,30.19,West,280,4.0,9.0,65,0.00,,,-99.99,,2013-03-05 14:42:00,
2013-03-05 07:21:00,45.0,37.0,30.20,North,0,0.0,2.0,73,0.00,,,-99.99,,2013-03-05 15:21:00,
2013-03-05 07:32:00,45.0,37.0,30.20,North,0,0.0,2.0,73,0.00,,,-99.99,,2013-03-05 15:32:00,
2013-03-05 07:42:00,45.0,37.0,30.20,North,0,0.0,2.0,73,0.00,,,-99.99,,2013-03-05 15:42:00,
2013-03-05 08:21:00,55.0,41.0,30.20,West,280,1.0,5.0,58,0.00,,,-99.99,,2013-03-05 16:21:00,
2013-03-05 08:41:00,55.0,41.0,30.20,West,280,1.0,5.0,58,0.00,,,-99.99,,2013-03-05 16:41:00,
2013-03-05 09:21:00,60.0,39.0,30.18,West,270,9.0,17.0,45,0.00,,,-99.99,,2013-03-05 17:21:00,
2013-03-05 09:32:00,60.0,39.0,30.18,West,270,9.0,17.0,45,0.00,,,-99.99,,2013-03-05 17:32:00,
2013-03-05 09:41:00,60.0,39.0,30.18,West,270,9.0,17.0,45,0.00,,,-99.99,,2013-03-05 17:41:00,
2013-03-05 10:21:00,65.0,36.0,30.18,West,270,8.0,16.0,34,0.00,,,-99.99,,2013-03-05 18:21:00,
2013-03-05 10:32:00,65.0,36.0,30.18,West,270,8.0,16.0,34,0.00,,,-99.99,,2013-03-05 18:32:00,
2013-03-05 10:41:00,65.0,36.0,30.18,West,270,8.0,16.0,34,0.00,,,-99.99,,2013-03-05 18:41:00,
2013-03-05 11:21:00,66.0,35.0,30.17,West,280,10.0,20.0,32,0.00,,,-99.99,,2013-03-05 19:21:00,
2013-03-05 11:32:00,66.0,35.0,30.17,West,280,10.0,20.0,32,0.00,,,-99.99,,2013-03-05 19:32:00,
2013-03-05 11:42:00,66.0,35.0,30.17,West,280,10.0,20.0,32,0.00,,,-99.99,,2013-03-05 19:42:00,
2013-03-05 12:21:00,67.0,35.0,30.16,WSW,240,7.0,21.0,30,0.00,,,-99.99,,2013-03-05 20:21:00,
2013-03-05 12:32:00,67.0,35.0,30.16,WSW,240,7.0,21.0,30,0.00,,,-99.99,,2013-03-05 20:32:00,
2013-03-05 12:41:00,67.0,35.0,30.16,WSW,240,7.0,21.0,30,0.00,,,-99.99,,2013-03-05 20:41:00,
2013-03-05 13:21:00,67.0,38.0,30.14,West,260,7.0,21.0,35,0.00,,,-99.99,,2013-03-05 21:21:00,
2013-03-05 13:31:00,67.0,38.0,30.14,West,260,7.0,21.0,35,0.00,,,-99.99,,2013-03-05 21:31:00,
2013-03-05 13:41:00,67.0,38.0,30.14,West,260,7.0,21.0,35,0.00,,,-99.99,,2013-03-05 21:41:00,
2013-03-05 14:21:00,65.0,38.0,30.11,West,260,8.0,22.0,37,0.00,,,-99.99,,2013-03-05 22:21:00,
2013-03-05 14:32:00,65.0,38.0,30.11,West,260,8.0,22.0,37,0.00,,,-99.99,,2013-03-05 22:32:00,
2013-03-05 14:41:00,65.0,38.0,30.11,West,260,8.0,22.0,37,0.00,,,-99.99,,2013-03-05 22:41:00,
2013-03-05 15:21:00,64.0,41.0,30.11,WSW,250,13.0,21.0,43,0.00,,,-99.99,,2013-03-05 23:21:00,
2013-03-05 15:32:00,64.0,41.0,30.11,WSW,250,13.0,21.0,43,0.00,,,-99.99,,2013-03-05 23:32:00,
2013-03-05 15:41:00,64.0,41.0,30.11,WSW,250,13.0,21.0,43,0.00,,,-99.99,,2013-03-05 23:41:00,
2013-03-05 16:21:00,62.0,44.0,30.09,WSW,240,11.0,21.0,52,0.00,,,-99.99,,2013-03-06 00:21:00,
2013-03-05 16:32:00,62.0,44.0,30.09,WSW,240,11.0,21.0,52,0.00,,,-99.99,,2013-03-06 00:32:00,
2013-03-05 16:41:00,62.0,44.0,30.09,WSW,240,11.0,21.0,52,0.00,,,-99.99,,2013-03-06 00:41:00,
2013-03-05 17:21:00,59.0,40.0,30.08,West,260,13.0,25.0,50,0.00,,,-99.99,,2013-03-06 01:21:00,
2013-03-05 17:31:00,59.0,40.0,30.08,West,260,13.0,25.0,50,0.00,,,-99.99,,2013-03-06 01:31:00,
2013-03-05 17:41:00,59.0,40.0,30.08,West,260,13.0,25.0,50,0.00,,,-99.99,,2013-03-06 01:41:00,
2013-03-05 18:21:00,56.0,41.0,30.09,West,260,11.0,16.0,56,0.00,,,-99.99,,2013-03-06 02:21:00,
2013-03-05 18:31:00,56.0,41.0,30.09,West,260,11.0,16.0,56,0.00,,,-99.99,,2013-03-06 02:31:00,
2013-03-05 18:41:00,56.0,41.0,30.09,West,260,11.0,16.0,56,0.00,,,-99.99,,2013-03-06 02:41:00,
2013-03-05 19:21:00,54.0,43.0,30.09,WSW,240,9.0,17.0,67,0.00,,,-99.99,,2013-03-06 03:21:00,
2013-03-05 19:31:00,54.0,43.0,30.09,WSW,240,9.0,17.0,67,0.00,,,-99.99,,2013-03-06 03:31:00,
2013-03-05 19:41:00,54.0,43.0,30.09,WSW,240,9.0,17.0,67,0.00,,,-99.99,,2013-03-06 03:41:00,
2013-03-05 20:21:00,52.0,44.0,30.09,West,280,11.0,14.0,73,0.00,,,-99.99,,2013-03-06 04:21:00,
2013-03-05 20:32:00,52.0,44.0,30.09,West,280,11.0,14.0,73,0.00,,,-99.99,,2013-03-06 04:32:00,
2013-03-05 20:41:00,52.0,44.0,30.09,West,280,11.0,14.0,73,0.00,,,-99.99,,2013-03-06 04:41:00,
2013-03-05 21:22:00,49.0,44.0,30.11,NW,310,12.0,17.0,82,0.00,,,-99.99,,2013-03-06 05:22:00,
2013-03-05 21:32:00,49.0,44.0,30.11,NW,310,12.0,17.0,82,0.00,,,-99.99,,2013-03-06 05:32:00,
2013-03-05 21:42:00,49.0,44.0,30.11,NW,310,12.0,17.0,82,0.00,,,-99.99,,2013-03-06 05:42:00,
2013-03-05 22:22:00,49.0,42.0,30.11,SSW,210,6.0,13.0,78,0.00,,,-99.99,,2013-03-06 06:22:00,
2013-03-05 22:31:00,49.0,42.0,30.11,SSW,210,6.0,13.0,78,0.00,,,-99.99,,2013-03-06 06:31:00,
2013-03-05 22:41:00,49.0,42.0,30.11,SSW,210,6.0,13.0,78,0.00,,,-99.99,,2013-03-06 06:41:00,
2013-03-05 23:22:00,47.0,43.0,30.12,WSW,250,17.0,29.0,86,0.00,,,-99.99,,2013-03-06 07:22:00,
2013-03-05 23:31:00,47.0,43.0,30.12,WSW,250,17.0,29.0,86,0.00,,,-99.99,,2013-03-06 07:31:00,
2013-03-05 23:42:00,47.0,43.0,30.12,WSW,250,17.0,29.0,86,0.00,,,-99.99,,2013-03-06 07:42:00,